User: anonymous   Login
Location: Lafig�re
(44.4503°N, 4.0357°E)
Time: 17:25:31
(UTC+00:00)
Language:

Transit 4A - Orbit

View from above orbital plane
View from above orbital plane
View from above satellite
View from above satellite

Ground track
Ground track

The orbit data is extracted from the following two-line orbital elements,

1   116U 61015A   21206.96938900 -.00000039  00000-0  29076-4 0  9997
2   116  66.8107 301.7577 0068598  85.8600 275.0316 13.91793773 48467
Epoch (UTC): 25 July 2021 23:15:55
Eccentricity: 0.0068598
inclination: 66.8107°
perigee height: 872 km
apogee height: 972 km
right ascension of ascending node: 301.7577°
argument of perigee: 85.8600°
revolutions per day: 13.91793773
mean anomaly at epoch: 275.0316°
orbit number at epoch: 4846

The dashed part of the orbit path shows where the satellite is in the earth's shadow,  

DLR